Time,TemperatureF,DewpointF,PressureIn,WindDirection,WindDirectionDegrees,WindSpeedMPH,WindSpeedGustMPH,Humidity,HourlyPrecipIn,Conditions,Clouds,dailyrainin,SoftwareType,DateUTC
2013-09-11 00:12:00,80.3,66.0,30.00,WSW,250,4.0,7.0,62,0.00,,,0.00,weatherlink.com 1.10,2013-09-11 05:12:00,
2013-09-11 00:26:00,79.9,66.0,30.00,SW,236,3.0,5.0,63,0.00,,,0.00,weatherlink.com 1.10,2013-09-11 05:26:00,
2013-09-11 00:42:00,79.4,66.0,30.00,WSW,255,4.0,7.0,64,0.00,,,0.00,weatherlink.com 1.10,2013-09-11 05:42:00,
2013-09-11 00:57:00,79.1,66.0,30.00,West,260,3.0,5.0,64,0.00,,,0.00,weatherlink.com 1.10,2013-09-11 05:57:00,
2013-09-11 01:11:00,78.8,66.0,30.00,WSW,238,3.0,5.0,64,0.00,,,0.00,weatherlink.com 1.10,2013-09-11 06:11:00,
2013-09-11 01:26:00,78.5,66.0,30.00,WSW,238,5.0,5.0,65,0.00,,,0.00,weatherlink.com 1.10,2013-09-11 06:26:00,
2013-09-11 01:42:00,78.4,65.0,30.00,WSW,243,5.0,9.0,64,0.00,,,0.00,weatherlink.com 1.10,2013-09-11 06:42:00,
2013-09-11 01:56:00,78.2,65.0,30.00,SSW,211,2.0,7.0,65,0.00,,,0.00,weatherlink.com 1.10,2013-09-11 06:56:00,
2013-09-11 02:12:00,77.9,65.0,30.00,SW,219,5.0,7.0,65,0.00,,,0.00,weatherlink.com 1.10,2013-09-11 07:12:00,
2013-09-11 02:26:00,77.9,65.0,30.00,West,271,1.0,6.0,65,0.00,,,0.00,weatherlink.com 1.10,2013-09-11 07:26:00,
2013-09-11 02:43:00,77.4,66.0,30.00,West,273,0.0,5.0,68,0.00,,,0.00,weatherlink.com 1.10,2013-09-11 07:43:00,
2013-09-11 02:57:00,76.4,66.0,30.01,West,267,1.0,5.0,70,0.00,,,0.00,weatherlink.com 1.10,2013-09-11 07:57:00,
2013-09-11 03:27:00,76.2,65.0,30.00,SW,225,2.0,3.0,68,0.00,,,0.00,weatherlink.com 1.10,2013-09-11 08:27:00,
2013-09-11 03:42:00,76.5,65.0,30.01,WSW,253,3.0,4.0,68,0.00,,,0.00,weatherlink.com 1.10,2013-09-11 08:42:00,
2013-09-11 03:58:00,76.6,65.0,30.01,West,271,1.0,5.0,67,0.00,,,0.00,weatherlink.com 1.10,2013-09-11 08:58:00,
2013-09-11 04:12:00,76.5,65.0,30.01,SW,224,3.0,5.0,67,0.00,,,0.00,weatherlink.com 1.10,2013-09-11 09:12:00,
2013-09-11 04:27:00,76.0,65.0,30.01,SW,227,3.0,4.0,68,0.00,,,0.00,weatherlink.com 1.10,2013-09-11 09:27:00,
2013-09-11 04:43:00,75.9,65.0,30.02,SW,214,3.0,4.0,69,0.00,,,0.00,weatherlink.com 1.10,2013-09-11 09:43:00,
2013-09-11 04:58:00,75.4,65.0,30.01,WSW,250,2.0,3.0,70,0.00,,,0.00,weatherlink.com 1.10,2013-09-11 09:58:00,
2013-09-11 05:13:00,74.7,65.0,30.02,WSW,243,0.0,2.0,72,0.00,,,0.00,weatherlink.com 1.10,2013-09-11 10:13:00,
2013-09-11 05:29:00,73.4,65.0,30.02,WSW,242,1.0,3.0,74,0.00,,,0.00,weatherlink.com 1.10,2013-09-11 10:29:00,
2013-09-11 05:44:00,74.1,65.0,30.02,WSW,256,3.0,4.0,72,0.00,,,0.00,weatherlink.com 1.10,2013-09-11 10:44:00,
2013-09-11 05:58:00,74.2,65.0,30.03,WSW,250,2.0,5.0,72,0.00,,,0.00,weatherlink.com 1.10,2013-09-11 10:58:00,
2013-09-11 06:14:00,74.1,65.0,30.03,SSW,211,1.0,5.0,72,0.00,,,0.00,weatherlink.com 1.10,2013-09-11 11:14:00,
2013-09-11 06:28:00,74.2,65.0,30.04,SW,229,1.0,4.0,72,0.00,,,0.00,weatherlink.com 1.10,2013-09-11 11:28:00,
2013-09-11 06:44:00,72.6,65.0,30.04,SSW,201,2.0,3.0,76,0.00,,,0.00,weatherlink.com 1.10,2013-09-11 11:44:00,
2013-09-11 06:58:00,72.5,65.0,30.04,WSW,250,3.0,3.0,76,0.00,,,0.00,weatherlink.com 1.10,2013-09-11 11:58:00,
2013-09-11 07:15:00,73.7,65.0,30.05,WSW,240,1.0,5.0,74,0.00,,,0.00,weatherlink.com 1.10,2013-09-11 12:15:00,
2013-09-11 07:29:00,74.0,65.0,30.05,WSW,248,2.0,2.0,74,0.00,,,0.00,weatherlink.com 1.10,2013-09-11 12:29:00,
2013-09-11 07:43:00,74.3,65.0,30.05,SW,226,3.0,5.0,73,0.00,,,0.00,weatherlink.com 1.10,2013-09-11 12:43:00,
2013-09-11 08:00:00,74.8,66.0,30.05,WSW,243,2.0,6.0,73,0.00,,,0.00,weatherlink.com 1.10,2013-09-11 13:00:00,
2013-09-11 08:14:00,75.3,66.0,30.05,WNW,285,2.0,6.0,72,0.00,,,0.00,weatherlink.com 1.10,2013-09-11 13:14:00,
2013-09-11 08:29:00,76.6,67.0,30.05,SSW,195,1.0,5.0,71,0.00,,,0.00,weatherlink.com 1.10,2013-09-11 13:29:00,
2013-09-11 08:45:00,77.7,67.0,30.05,WSW,243,2.0,6.0,70,0.00,,,0.00,weatherlink.com 1.10,2013-09-11 13:45:00,
2013-09-11 09:00:00,78.7,68.0,30.05,WSW,247,4.0,5.0,69,0.00,,,0.00,weatherlink.com 1.10,2013-09-11 14:00:00,
2013-09-11 09:14:00,79.6,68.0,30.05,WSW,238,4.0,8.0,68,0.00,,,0.00,weatherlink.com 1.10,2013-09-11 14:14:00,
2013-09-11 09:30:00,81.1,69.0,30.06,WSW,243,5.0,5.0,66,0.00,,,0.00,weatherlink.com 1.10,2013-09-11 14:30:00,
2013-09-11 09:44:00,82.3,68.0,30.06,ESE,110,1.0,9.0,63,0.00,,,0.00,weatherlink.com 1.10,2013-09-11 14:44:00,
2013-09-11 10:00:00,83.2,70.0,30.05,SW,232,2.0,9.0,64,0.00,,,0.00,weatherlink.com 1.10,2013-09-11 15:00:00,
2013-09-11 10:15:00,84.4,70.0,30.05,SSE,149,0.0,3.0,62,0.00,,,0.00,weatherlink.com 1.10,2013-09-11 15:15:00,
2013-09-11 10:31:00,85.1,71.0,30.05,WNW,283,2.0,5.0,62,0.00,,,0.00,weatherlink.com 1.10,2013-09-11 15:31:00,
2013-09-11 10:45:00,85.5,71.0,30.05,WSW,249,1.0,6.0,62,0.00,,,0.00,weatherlink.com 1.10,2013-09-11 15:45:00,
2013-09-11 11:00:00,86.0,70.0,30.05,WSW,239,3.0,6.0,60,0.00,,,0.00,weatherlink.com 1.10,2013-09-11 16:00:00,
2013-09-11 11:31:00,88.0,71.0,30.04,WSW,249,2.0,7.0,58,0.00,,,0.00,weatherlink.com 1.10,2013-09-11 16:31:00,
2013-09-11 11:46:00,88.0,71.0,30.04,NW,317,1.0,6.0,57,0.00,,,0.00,weatherlink.com 1.10,2013-09-11 16:46:00,
2013-09-11 12:00:00,88.1,70.0,30.03,WSW,240,4.0,7.0,55,0.00,,,0.00,weatherlink.com 1.10,2013-09-11 17:00:00,
2013-09-11 12:16:00,88.7,70.0,30.03,WSW,240,3.0,6.0,55,0.00,,,0.00,weatherlink.com 1.10,2013-09-11 17:16:00,
2013-09-11 12:31:00,89.3,70.0,30.03,WSW,248,5.0,9.0,54,0.00,,,0.00,weatherlink.com 1.10,2013-09-11 17:31:00,
2013-09-11 12:45:00,89.9,70.0,30.03,WSW,237,6.0,8.0,52,0.00,,,0.00,weatherlink.com 1.10,2013-09-11 17:45:00,
2013-09-11 13:02:00,90.4,72.0,30.02,WSW,252,3.0,8.0,54,0.00,,,0.00,weatherlink.com 1.10,2013-09-11 18:02:00,
2013-09-11 13:16:00,90.5,71.0,30.02,SE,138,5.0,8.0,53,0.00,,,0.00,weatherlink.com 1.10,2013-09-11 18:16:00,
2013-09-11 13:31:00,90.8,70.0,30.02,SSW,203,2.0,7.0,50,0.00,,,0.00,weatherlink.com 1.10,2013-09-11 18:31:00,
2013-09-11 13:47:00,91.5,71.0,30.01,WNW,295,1.0,8.0,52,0.00,,,0.00,weatherlink.com 1.10,2013-09-11 18:47:00,
2013-09-11 14:02:00,92.4,71.0,30.01,SW,219,5.0,6.0,49,0.00,,,0.00,weatherlink.com 1.10,2013-09-11 19:02:00,
2013-09-11 14:16:00,92.7,69.0,30.00,South,169,2.0,7.0,46,0.00,,,0.00,weatherlink.com 1.10,2013-09-11 19:16:00,
2013-09-11 14:31:00,93.6,68.0,30.00,SW,215,6.0,9.0,43,0.00,,,0.00,weatherlink.com 1.10,2013-09-11 19:31:00,
2013-09-11 14:47:00,92.8,68.0,29.99,West,280,6.0,12.0,44,0.00,,,0.00,weatherlink.com 1.10,2013-09-11 19:47:00,
2013-09-11 15:02:00,92.4,66.0,29.99,West,269,9.0,12.0,42,0.00,,,0.00,weatherlink.com 1.10,2013-09-11 20:02:00,
2013-09-11 15:16:00,93.1,69.0,29.99,NW,304,2.0,6.0,45,0.00,,,0.00,weatherlink.com 1.10,2013-09-11 20:16:00,
2013-09-11 15:32:00,92.8,69.0,29.98,WSW,243,5.0,8.0,45,0.00,,,0.00,weatherlink.com 1.10,2013-09-11 20:32:00,
2013-09-11 15:47:00,92.7,68.0,29.98,WSW,250,1.0,7.0,44,0.00,,,0.00,weatherlink.com 1.10,2013-09-11 20:47:00,
2013-09-11 16:02:00,92.8,68.0,29.97,WSW,248,2.0,7.0,44,0.00,,,0.00,weatherlink.com 1.10,2013-09-11 21:02:00,
2013-09-11 16:18:00,91.1,67.0,29.97,SW,236,2.0,6.0,45,0.00,,,0.00,weatherlink.com 1.10,2013-09-11 21:18:00,
2013-09-11 16:32:00,91.2,68.0,29.96,SW,217,3.0,7.0,46,0.00,,,0.00,weatherlink.com 1.10,2013-09-11 21:32:00,
2013-09-11 16:47:00,92.0,71.0,29.96,South,178,5.0,9.0,50,0.00,,,0.00,weatherlink.com 1.10,2013-09-11 21:47:00,
2013-09-11 17:03:00,91.7,72.0,29.96,SSW,208,4.0,8.0,52,0.00,,,0.00,weatherlink.com 1.10,2013-09-11 22:03:00,
2013-09-11 17:18:00,91.3,71.0,29.96,South,169,3.0,7.0,52,0.00,,,0.00,weatherlink.com 1.10,2013-09-11 22:18:00,
2013-09-11 17:32:00,89.6,72.0,29.96,WSW,245,1.0,5.0,56,0.00,,,0.00,weatherlink.com 1.10,2013-09-11 22:32:00,
2013-09-11 17:48:00,87.6,72.0,29.96,NNE,24,5.0,11.0,60,0.00,,,0.00,weatherlink.com 1.10,2013-09-11 22:48:00,
2013-09-11 18:03:00,86.1,72.0,29.96,NE,48,4.0,8.0,62,0.00,,,0.00,weatherlink.com 1.10,2013-09-11 23:03:00,
2013-09-11 18:18:00,85.1,72.0,29.97,NE,54,2.0,6.0,64,0.00,,,0.00,weatherlink.com 1.10,2013-09-11 23:18:00,
2013-09-11 18:34:00,84.3,71.0,29.97,NE,42,3.0,5.0,65,0.00,,,0.00,weatherlink.com 1.10,2013-09-11 23:34:00,
2013-09-11 18:48:00,83.6,72.0,29.96,NE,48,2.0,6.0,67,0.00,,,0.00,weatherlink.com 1.10,2013-09-11 23:48:00,
2013-09-11 19:03:00,83.0,71.0,29.96,North,354,1.0,9.0,67,0.00,,,0.00,weatherlink.com 1.10,2013-09-12 00:03:00,
2013-09-11 19:19:00,82.3,71.0,29.97,NNW,343,0.0,3.0,69,0.00,,,0.00,weatherlink.com 1.10,2013-09-12 00:19:00,
2013-09-11 19:33:00,80.9,71.0,29.97,North,358,0.0,1.0,71,0.00,,,0.00,weatherlink.com 1.10,2013-09-12 00:33:00,
2013-09-11 19:49:00,80.1,70.0,29.97,ENE,63,2.0,2.0,72,0.00,,,0.00,weatherlink.com 1.10,2013-09-12 00:49:00,
2013-09-11 20:03:00,79.6,70.0,29.98,NNE,30,2.0,5.0,72,0.00,,,0.00,weatherlink.com 1.10,2013-09-12 01:03:00,
2013-09-11 20:18:00,79.0,70.0,29.98,NNE,32,0.0,5.0,73,0.00,,,0.00,weatherlink.com 1.10,2013-09-12 01:18:00,
2013-09-11 20:34:00,78.2,70.0,29.99,NE,39,0.0,2.0,76,0.00,,,0.00,weatherlink.com 1.10,2013-09-12 01:34:00,
2013-09-11 20:48:00,77.7,70.0,29.99,ENE,63,0.0,3.0,76,0.00,,,0.00,weatherlink.com 1.10,2013-09-12 01:48:00,
2013-09-11 21:04:00,76.8,70.0,30.00,ENE,63,0.0,1.0,80,0.00,,,0.00,weatherlink.com 1.10,2013-09-12 02:04:00,
2013-09-11 21:20:00,76.2,70.0,30.00,ENE,60,0.0,1.0,80,0.00,,,0.00,weatherlink.com 1.10,2013-09-12 02:20:00,
2013-09-11 21:34:00,75.9,70.0,30.00,ENE,61,0.0,1.0,81,0.00,,,0.00,weatherlink.com 1.10,2013-09-12 02:34:00,
2013-09-11 21:49:00,75.5,70.0,29.99,ENE,61,0.0,1.0,82,0.00,,,0.00,weatherlink.com 1.10,2013-09-12 02:49:00,
2013-09-11 22:04:00,75.2,70.0,29.99,ENE,60,0.0,0.0,83,0.00,,,0.00,weatherlink.com 1.10,2013-09-12 03:04:00,
2013-09-11 22:20:00,74.8,70.0,29.99,ENE,60,0.0,0.0,85,0.00,,,0.00,weatherlink.com 1.10,2013-09-12 03:20:00,
2013-09-11 22:34:00,74.5,70.0,29.99,ENE,61,0.0,1.0,85,0.00,,,0.00,weatherlink.com 1.10,2013-09-12 03:34:00,
2013-09-11 22:49:00,74.0,70.0,29.99,ENE,60,0.0,0.0,87,0.00,,,0.00,weatherlink.com 1.10,2013-09-12 03:49:00,
2013-09-11 23:05:00,73.9,70.0,30.00,ENE,60,0.0,1.0,88,0.00,,,0.00,weatherlink.com 1.10,2013-09-12 04:05:00,
2013-09-11 23:19:00,73.6,70.0,30.00,ENE,60,0.0,1.0,89,0.00,,,0.00,weatherlink.com 1.10,2013-09-12 04:19:00,
2013-09-11 23:35:00,72.9,70.0,29.99,WNW,288,0.0,7.0,90,0.09,,,0.09,weatherlink.com 1.10,2013-09-12 04:35:00,
2013-09-11 23:49:00,72.2,70.0,29.98,ENE,63,1.0,1.0,93,0.09,,,0.09,weatherlink.com 1.10,2013-09-12 04:49:00,